Latrobe, PA

6:23 AM EDT on August 20, 2019 (GMT -0400)
Arnold Palmer Regional

Weather History for KLBE - May, 2019

Change the Weather History Date:

Saturday, May 11, 2019

  Actual Average Record
Temperature  
Mean Temperature 54 °F -  
Max Temperature 60 °F 70 °F 86 °F (2015)
Min Temperature 48 °F 47 °F 35 °F (1997)
Degree Days  
Heating Degree Days 11    
Growing Degree Days 4 (Base 50)    
Moisture  
Dew Point 46 °F    
Average Humidity 78    
Maximum Humidity 100    
Minimum Humidity 48    
Precipitation  
Precipitation 0.00 in - - ()
Sea Level Pressure  
Sea Level Pressure 30.04 in    
Wind  
Wind Speed 6 mph (North)    
Max Wind Speed 12 mph    
Max Gust Speed 17 mph    
Visibility 11 miles    
Events Rain    
Averages and records for this station are not official NWS values.
T = Trace of Precipitation, MM = Missing Value Source: NWS Daily Summary

Daily Weather History Graph

Daily Weather History Graph

Search for Another Location

Airport or City:

Astronomy

May. 11, 2019 Rise Set
Actual Time 6:05 AM EDT 8:22 PM EDT
Civil Twilight 5:35 AM EDT 8:53 PM EDT
Nautical Twilight 4:58 AM EDT 9:30 PM EDT
Astronomical Twilight 4:16 AM EDT 10:12 PM EDT
Moon 12:12 PM EDT (5/11) 2:02 AM EDT (5/11)
Length of Visible Light 15h 17m
Length of Day
14h 16m
Waxing Crescent, 46% of the Moon is Illuminated
May 11
Waxing Crescent
May 11
First Quarter
May 18
Full
May 26
Last Quarter
Jun 3
New

Hourly Weather History & Observations

Time (EDT) Temp. Dew Point Humidity Pressure Visibility Wind Dir Wind Speed Gust Speed Precip Events Conditions
12:15 AM 53.6 °F 48.2 °F 82% 30.10 in 10.0 mi NNW 5.8 mph - N/A   Overcast
12:55 AM 53.6 °F 46.4 °F 77% 30.10 in 10.0 mi NW 5.8 mph - N/A   Overcast
1:15 AM 51.8 °F 46.4 °F 82% 30.10 in 10.0 mi NNW 5.8 mph - N/A   Overcast
1:35 AM 51.8 °F 46.4 °F 82% 30.10 in 10.0 mi NW 5.8 mph - N/A   Overcast
1:55 AM 51.8 °F 46.4 °F 82% 30.10 in 10.0 mi Calm Calm - N/A   Overcast
2:15 AM 51.8 °F 46.4 °F 82% 30.11 in 10.0 mi NW 3.5 mph - N/A   Mostly Cloudy
2:35 AM 51.8 °F 46.4 °F 82% 30.11 in 10.0 mi NNW 4.6 mph - N/A   Overcast
2:55 AM 51.8 °F 44.6 °F 76% 30.11 in 10.0 mi NNW 6.9 mph - N/A   Overcast
3:15 AM 51.8 °F 44.6 °F 76% 30.11 in 10.0 mi NNW 5.8 mph - N/A   Overcast
3:35 AM 51.8 °F 44.6 °F 76% 30.11 in 10.0 mi NNW 3.5 mph - N/A   Overcast
3:55 AM 51.8 °F 44.6 °F 76% 30.12 in 10.0 mi North 5.8 mph - N/A   Mostly Cloudy
4:15 AM 50.0 °F 42.8 °F 76% 30.11 in 10.0 mi Calm Calm - N/A   Mostly Cloudy
4:35 AM 50.0 °F 42.8 °F 76% 30.12 in 10.0 mi NNW 5.8 mph - N/A   Overcast
4:55 AM 50.0 °F 42.8 °F 76% 30.12 in 10.0 mi NW 4.6 mph - N/A   Overcast
5:15 AM 50.0 °F 42.8 °F 76% 30.11 in 10.0 mi Calm Calm - N/A   Overcast
5:35 AM 50.0 °F 42.8 °F 76% 30.11 in 10.0 mi North 5.8 mph - N/A   Overcast
5:55 AM 50.0 °F 42.8 °F 76% 30.11 in 10.0 mi North 8.1 mph - N/A   Overcast
6:51 AM 48.2 °F 41.0 °F 76% 30.13 in 20.0 mi NE 11.5 mph - N/A   Overcast
7:51 AM 50.0 °F 41.0 °F 71% 30.13 in 20.0 mi NE 11.5 mph - N/A   Mostly Cloudy
8:51 AM 50.0 °F 37.4 °F 62% 30.13 in 20.0 mi NNE 11.5 mph - N/A   Clear
9:51 AM 53.6 °F 39.2 °F 58% 30.12 in 20.0 mi North - - N/A   Clear
10:51 AM 55.4 °F 39.2 °F 54% 30.11 in 20.0 mi North - - N/A   Scattered Clouds
11:51 AM 57.2 °F 37.4 °F 48% 30.10 in 20.0 mi NNE 5.8 mph - N/A   Partly Cloudy
12:50 PM 59.0 °F 39.2 °F 48% 30.08 in 10.0 mi NNE 6.9 mph - N/A   Scattered Clouds
1:50 PM 59.0 °F 41.0 °F 51% 30.04 in 10.0 mi North 6.9 mph - N/A   Mostly Cloudy
2:50 PM 59.0 °F 41.0 °F 51% 30.02 in 10.0 mi North 6.9 mph - N/A   Mostly Cloudy
3:50 PM 60.8 °F 41.0 °F 48% 29.99 in 10.0 mi NNE 11.5 mph - N/A   Mostly Cloudy
4:53 PM 59.0 °F 44.6 °F 59% 29.97 in 10.0 mi East 5.8 mph - N/A   Overcast
5:53 PM 55.4 °F 51.8 °F 88% 29.95 in 10.0 mi East 11.5 mph - N/A   Overcast
6:53 PM 53.6 °F 53.6 °F 100% 29.93 in 2.5 mi ENE 9.2 mph - N/A Rain Light Rain
7:53 PM 53.6 °F 53.6 °F 100% 29.92 in 2.5 mi East 6.9 mph - N/A Rain Light Rain
8:53 PM 51.8 °F 51.8 °F 100% 29.91 in 3.0 mi ENE 5.8 mph - N/A Rain Light Rain
9:53 PM 51.8 °F 51.8 °F 100% 29.90 in 8.0 mi NE 8.1 mph - N/A   Overcast
10:15 PM 51.8 °F 51.8 °F 100% 29.88 in 10.0 mi Variable 4.6 mph - N/A   Overcast
10:35 PM 51.8 °F 51.8 °F 100% 29.87 in 10.0 mi Variable 4.6 mph - N/A   Mostly Cloudy
10:55 PM 51.8 °F 51.8 °F 100% 29.88 in 10.0 mi NNE 8.1 mph 17.3 mph N/A   Overcast
11:15 PM 53.6 °F 51.8 °F 94% 29.86 in 10.0 mi SE 9.2 mph - N/A   Overcast
11:35 PM 53.6 °F 51.8 °F 94% 29.85 in 10.0 mi North 4.6 mph - N/A   Overcast
11:55 PM 53.6 °F 51.8 °F 94% 29.85 in 10.0 mi Variable 5.8 mph - N/A   Mostly Cloudy